Regional Weather Roundup
Issued by NWS

Home | Current Version | Previous Version | Text Only | Print | Product List | Glossary On
Versions: 1 2 3 4 5 6 7 8 9 10 11 12 13 14 15 16 17 18 19 20 21 22 23 24 25 26 27 28 29 30 31 32 33 34 35 36 37 38 39 40 41 42 43 44 45 46 47 48 49 50
000
ASUS44 KMEG 300510
RWRTN
TENNESSEE HOURLY STATE WEATHER ROUNDUP
NATIONAL WEATHER SERVICE MEMPHIS TN
1200 AM CDT THU MAR 30 2017

TNZ002-004-019-021-049-052-054-088>092-300600-
WEST TENNESSEE

CITY           SKY/WX    TMP DP  RH WIND       PRES   REMARKS
MEMPHIS INTL   CLOUDY    75  58  55 S22G35    29.75F
NWS MEMPHIS      N/A     75 N/A N/A MISG        N/A
JACKSON        PTCLDY    73  57  57 S8        29.81F
DYERSBURG      CLOUDY    72  59  63 S10G16    29.77F
SOMERVILLE     CLOUDY    73  57  56 S13G21    29.79S
BOLIVAR        CLOUDY    72  57  60 SE9       29.81R
PARIS          PTCLDY    68  54  60 SE8       29.81F
HUNTINGDON     CLOUDY    72  57  60 SE6       29.81F
SAVANNAH       MOCLDY    72  57  60 S8        29.83F
$$

TNZ008-025-027-028-033-062-065-066-300600-
NORTH MIDDLE TENNESSEE

CITY           SKY/WX    TMP DP  RH WIND       PRES   REMARKS
NASHVILLE      CLOUDY    70  59  68 S3        29.88F
PORTLAND       CLOUDY    64  55  72 CALM      29.88F
CLARKSVILLE    CLOUDY    69  58  67 S5        29.84F
SMYRNA         CLOUDY    63  59  87 SE3       29.89F
COOKEVILLE     CLOUDY    66  55  68 CALM      29.90F
GALLATIN       CLOUDY    66  57  72 CALM      29.90F
CROSSVILLE     CLEAR     60  52  74 E3        29.97F
$$

TNZ061-075-076-078-094-096-097-300600-
SOUTH MIDDLE TENNESSEE

CITY           SKY/WX    TMP DP  RH WIND       PRES   REMARKS
FAYETTEVILLE   CLEAR     68  59  73 S6        29.91S
TULLAHOMA      PTCLDY    66  55  68 CALM      29.92S
MCMINNVILLE    MOCLDY    66  57  72 SW5       29.92S
COLUMBIA       PTCLDY    68  66  94 SE6       29.86F
SHELBYVILLE    CLOUDY    66  61  82 SE3       29.91F
$$

TNZ017-018-042-046-047-300600-
NORTHEAST TENNESSEE

CITY           SKY/WX    TMP DP  RH WIND       PRES   REMARKS
TRI CITIES     CLEAR     51  47  86 CALM      30.02S
ELIZABETHTON   CLEAR     55  48  76 VRB3      30.03S
$$

TNZ012-013-036-069-073-074-300600-
CENTRAL EAST TENNESSEE

CITY           SKY/WX    TMP DP  RH WIND       PRES   REMARKS
KNOXVILLE      CLEAR     62  50  64 NE3       29.95F
OAK RIDGE      CLEAR     60  52  74 CALM      29.97S
DOWNTOWN KNOXV PTCLDY    57  54  88 CALM      29.96F
GATLINBURG     CLEAR     54  48  82 CALM      29.97S
MORRISTOWN     PTCLDY    63  48  59 CALM      29.97F
JACKSBORO      MOCLDY    54  52  94 CALM      30.00F
$$

TNZ083-085-099-300600-
SOUTHEAST TENNESSEE

CITY           SKY/WX    TMP DP  RH WIND       PRES   REMARKS
CHATTANOOGA    PTCLDY    65  57  75 CALM      29.93F
$$

SKY/WX REPORTED AS FAIR MEANS FEW OR NO CLOUDS BELOW
12 THOUSAND FEET.





USA.gov is the U.S. government's official web portal to all federal, state and local government web resources and services.